{"data":{"norad_id":60480,"intl_designator":"2024-149N","name":"FLOCK 4BE-18","alt_names":[],"object_type":"PAYLOAD","status":"ACTIVE","operator":null,"country":"US","launch_date":"2024-08-16","launch_site_code":"AFWTR","launch_vehicle":null,"mission":null,"orbit_class":"UNKNOWN","rcs_meters":null,"size_class":null,"mass_kg":null,"dimensions":null,"purposes":["earth_obs"],"wikipedia_slug":null,"has_3d_model":false,"image_url":null,"decayed_at":null,"tle_current":{"epoch":"2026-05-25T03:58:23.384352Z","epoch_age_seconds":64727,"freshness":"FRESH","line1":"1 60480U 24149N   26145.16554843  .00016500  00000+0  40163-3 0  9990","line2":"2 60480  97.3723 228.6688 0002623   2.4036 357.7223 15.41014707 98768","mean_motion":15.41014707,"eccentricity":0.0002623,"inclination_deg":97.3723,"raan_deg":228.6688,"arg_perigee_deg":2.4036,"mean_anomaly_deg":357.7223,"bstar":0.00040163,"rev_number":9876,"period_min":93.444922586323,"perigee_km":441.32408214735,"apogee_km":444.90251005269,"semimajor_km":6821.2502961,"source":"CELESTRAK","updated_at":"2026-05-25T13:38:13.302008Z"}}}